Temp
-8 -8 -9 -9 -9 -9 -9 -9 -9 -9 -9 -9 -9 -8 -8 -8 -7 -7 -7 -8 -7 -7 -7 -7 -7 -7 -7 -8 -8 -8 -7 -7 -7 -7 -7 -7 -7 -7 -7 -7 -7 -7 -8
-8 -8 -9 -9 -9 -9 -9 -9 -9 -9 -9 -9 -8 -8 -8 -8 -8 -7 -7 -8 -7 -7 -7 -8 -8 -8 -8 -8 -8 -8 -7 -7 -7 -7 -8 -8 -7 -8 -8 -8 -8 -8 -8
-8 -9 -9 -9 -9 -9 -10 -9 -9 -9 -9 -9 -9 -8 -8 -8 -8 -8 -8 -7 -8 -8 -8 -8 -8 -8 -8 -8 -8 -8 -8 -8 -8 -8 -8 -8 -8 -8 -8 -8 -7 -7 -8
-9 -10 -10 -10 -10 -10 -10 -10 -10 -9 -9 -9 -9 -9 -9 -8 -7 -7 -8 -8 -8 -8 -9 -9 -9 -9 -9 -9 -8 -8 -8 -8 -8 -8 -8 -8 -8 -8 -8 -8 -7 -7 -9
-11 -11 -11 -10 -10 -10 -10 -10 -10 -10 -9 -9 -9 -9 -10 -10 -9 -7 -7 -8 -8 -8 -8 -8 -9 -9 -9 -9 -9 -9 -9 -9 -9 -8 -8 -8 -9 -8 -9 -8 -8 -7 -8
-10 -11 -10 -10 -10 -10 -10 -10 -10 -10 -9 -9 -9 -9 -10 -10 -10 -10 -9 -8 -9 -8 -9 -8 -9 -9 -9 -9 -9 -9 -9 -9 -9 -9 -8 -8 -9 -9 -9 -9 -9 -9 -9
-9 -9 -10 -10 -10 -10 -11 -11 -10 -10 -10 -10 -9 -9 -9 -9 -9 -10 -10 -10 -9 -8 -9 -9 -9 -9 -9 -9 -9 -9 -9 -9 -9 -9 -9 -9 -9 -8 -9 -9 -9 -9 -9
-9 -10 -10 -10 -10 -10 -11 -11 -11 -11 -10 -10 -10 -9 -9 -9 -9 -9 -9 -9 -10 -9 -8 -9 -9 -9 -9 -9 -9 -9 -9 -9 -9 -9 -9 -9 -9 -9 -9 -9 -9 -9 -9
-9 -11 -11 -11 -10 -11 -11 -11 -11 -10 -10 -10 -10 -10 -9 -9 -9 -9 -9 -9 -9 -9 -10 -9 -9 -9 -9 -9 -9 -9 -9 -9 -8 -9 -9 -9 -9 -8 -9 -9 -9 -9 -9
-9 -10 -10 -10 -11 -11 -11 -11 -11 -10 -10 -10 -10 -10 -9 -9 -9 -9 -8 -8 -9 -9 -9 -10 -9 -9 -9 -9 -9 -9 -9 -9 -8 -8 -9 -9 -9 -9 -9 -9 -9 -9 -9
-9 -10 -11 -11 -11 -11 -11 -11 -10 -10 -10 -10 -10 -9 -9 -9 -9 -8 -8 -8 -8 -9 -9 -9 -9 -9 -10 -9 -9 -9 -9 -9 -9 -8 -8 -8 -8 -9 -9 -9 -9 -9 -9
-9 -10 -11 -12 -11 -11 -11 -10 -10 -10 -10 -10 -10 -9 -8 -8 -8 -8 -9 -9 -8 -8 -9 -9 -9 -8 -9 -10 -9 -9 -9 -9 -9 -9 -9 -9 -8 -9 -9 -9 -9 -9 -9
-10 -11 -12 -12 -11 -11 -11 -11 -11 -11 -10 -10 -9 -8 -8 -8 -8 -8 -8 -9 -9 -8 -9 -10 -10 -10 -9 -10 -10 -9 -9 -9 -9 -9 -9 -9 -9 -9 -9 -9 -9 -9 -10
-12 -12 -12 -12 -11 -10 -10 -10 -11 -10 -9 -8 -8 -8 -8 -7 -7 -8 -8 -8 -7 -7 -9 -9 -9 -10 -10 -10 -10 -10 -10 -9 -10 -10 -9 -9 -9 -9 -9 -9 -9 -9 -10
-12 -11 -11 -11 -10 -10 -10 -10 -9 -9 -9 -8 -8 -8 -7 -8 -8 -8 -7 -8 -8 -8 -9 -9 -9 -10 -10 -10 -10 -10 -10 -10 -10 -9 -9 -9 -9 -10 -10 -9 -10 -10 -10
-11 -11 -11 -10 -10 -10 -10 -9 -9 -8 -8 -8 -8 -8 -8 -8 -8 -9 -9 -8 -8 -9 -10 -9 -9 -10 -10 -10 -10 -9 -10 -10 -9 -9 -10 -10 -10 -10 -10 -10 -10 -10 -10
-11 -11 -10 -10 -10 -10 -10 -10 -9 -9 -9 -9 -8 -8 -9 -9 -9 -9 -9 -9 -9 -10 -10 -10 -10 -10 -10 -10 -10 -9 -9 -9 -10 -10 -9 -10 -10 -10 -10 -10 -10 -10 -11
-11 -11 -11 -10 -10 -10 -10 -10 -10 -9 -9 -9 -9 -8 -8 -9 -9 -9 -9 -9 -9 -10 -10 -10 -9 -10 -11 -10 -10 -10 -10 -10 -10 -10 -10 -10 -10 -10 -11 -11 -11 -11 -11
-11 -11 -11 -11 -11 -11 -10 -10 -10 -10 -10 -10 -9 -9 -9 -9 -9 -9 -9 -10 -10 -10 -10 -10 -10 -10 -11 -10 -10 -10 -10 -10 -10 -10 -10 -11 -11 -11 -11 -11 -11 -11 -11
-11 -11 -11 -11 -11 -11 -11 -11 -11 -11 -11 -10 -11 -10 -10 -10 -10 -10 -10 -10 -10 -10 -10 -10 -10 -10 -10 -11 -11 -11 -11 -10 -11 -11 -11 -11 -11 -11 -11 -11 -11 -11 -12
-12 -12 -12 -12 -12 -12 -12 -12 -12 -12 -12 -12 -12 -12 -12 -11 -11 -10 -10 -11 -11 -11 -10 -10 -10 -10 -10 -11 -11 -11 -12 -12 -12 -12 -12 -12 -12 -12 -12 -12 -13 -13 -13
-13 -13 -13 -13 -13 -13 -13 -12 -13 -13 -13 -13 -13 -13 -12 -12 -11 -11 -12 -12 -11 -11 -12 -11 -11 -11 -11 -12 -12 -13 -13 -13 -13 -12 -12 -12 -12 -12 -13 -13 -14 -14 -14
-13 -14 -14 -14 -14 -14 -14 -14 -14 -14 -14 -14 -14 -14 -13 -13 -13 -13 -13 -13 -12 -12 -13 -13 -12 -12 -13 -12 -12 -12 -12 -12 -13 -13 -12 -13 -13 -14 -14 -15 -16 -16 -16
-14 -14 -14 -14 -14 -14 -15 -15 -15 -15 -15 -14 -15 -14 -14 -14 -14 -14 -14 -14 -14 -14 -14 -14 -14 -14 -14 -13 -13 -13 -13 -13 -14 -14 -14 -15 -15 -16 -16 -17 -17 -17 -16
-15 -15 -15 -15 -15 -15 -15 -15 -15 -15 -16 -15 -16 -15 -15 -15 -15 -15 -15 -15 -15 -14 -14 -15 -14 -14 -14 -14 -14 -14 -14 -14 -15 -15 -16 -16 -16 -18 -17 -17 -17 -17 -17
-15 -15 -15 -15 -16 -16 -16 -15 -16 -16 -16 -16 -16 -16 -16 -16 -16 -16 -15 -15 -15 -15 -15 -15 -16 -16 -15 -15 -15 -15 -15 -16 -16 -16 -17 -17 -17 -17 -17 -18 -18 -18 -18
Height
5855 5856 5856 5855 5854 5850 5847 5846 5845 5846 5843 5843 5841 5842 5841 5839 5838 5837 5837 5837 5838 5839 5840 5841 5841 5843 5844 5845 5847 5847 5847 5847 5847 5847 5847 5848 5848 5848 5847 5846 5847 5848 5848
5851 5852 5851 5852 5851 5848 5845 5844 5845 5845 5844 5842 5840 5837 5837 5835 5835 5834 5833 5833 5834 5836 5835 5835 5837 5838 5840 5842 5843 5844 5843 5842 5842 5842 5842 5841 5841 5842 5842 5841 5841 5840 5842
5848 5850 5849 5848 5846 5846 5844 5843 5841 5841 5839 5837 5835 5833 5832 5832 5830 5830 5830 5829 5828 5828 5830 5831 5831 5832 5835 5836 5838 5839 5840 5840 5839 5838 5838 5837 5836 5837 5837 5837 5836 5836 5836
5843 5844 5844 5846 5842 5841 5840 5838 5838 5837 5834 5833 5831 5829 5826 5827 5827 5825 5824 5825 5824 5823 5823 5823 5826 5828 5829 5830 5832 5833 5834 5834 5835 5835 5833 5832 5832 5831 5831 5833 5833 5830 5830
5832 5836 5837 5840 5839 5836 5835 5833 5832 5831 5830 5828 5826 5825 5822 5820 5820 5819 5819 5818 5818 5818 5817 5817 5818 5820 5822 5823 5824 5826 5827 5828 5829 5829 5828 5827 5827 5826 5827 5826 5827 5827 5826
5820 5820 5831 5835 5834 5831 5830 5829 5827 5826 5825 5823 5820 5819 5818 5815 5814 5814 5814 5811 5810 5811 5813 5813 5812 5813 5814 5817 5817 5819 5821 5822 5822 5823 5824 5823 5822 5822 5823 5823 5823 5824 5825
5811 5811 5817 5828 5825 5823 5824 5824 5822 5821 5820 5818 5815 5815 5814 5811 5810 5808 5807 5807 5808 5805 5805 5806 5808 5808 5808 5809 5810 5812 5815 5816 5816 5817 5818 5818 5818 5817 5818 5818 5818 5820 5820
5796 5801 5804 5815 5816 5815 5817 5815 5816 5815 5813 5812 5810 5809 5808 5807 5806 5804 5803 5802 5801 5802 5802 5799 5800 5802 5804 5803 5804 5805 5807 5810 5810 5809 5810 5811 5813 5813 5812 5812 5812 5813 5814
5775 5784 5791 5803 5808 5809 5808 5808 5808 5808 5805 5803 5802 5801 5800 5799 5799 5798 5798 5796 5796 5795 5796 5795 5794 5795 5796 5798 5798 5800 5800 5802 5802 5802 5803 5803 5804 5805 5805 5806 5806 5806 5806
5752 5769 5779 5790 5796 5799 5800 5799 5799 5800 5795 5794 5793 5792 5791 5790 5789 5789 5790 5788 5788 5787 5788 5788 5788 5789 5789 5790 5791 5792 5794 5795 5794 5795 5795 5796 5797 5797 5797 5797 5798 5798 5798
5739 5758 5774 5780 5784 5788 5791 5792 5791 5789 5788 5786 5784 5784 5782 5780 5779 5779 5779 5780 5779 5777 5777 5778 5778 5780 5781 5781 5783 5784 5786 5787 5788 5787 5788 5789 5789 5789 5788 5789 5790 5790 5790
5744 5759 5764 5773 5779 5782 5781 5781 5780 5778 5775 5775 5773 5774 5772 5770 5768 5768 5768 5767 5767 5766 5767 5767 5767 5769 5771 5773 5773 5774 5777 5778 5778 5779 5779 5781 5782 5782 5781 5781 5782 5783 5783
5748 5755 5762 5766 5769 5771 5771 5772 5770 5767 5764 5763 5762 5763 5763 5761 5761 5759 5756 5755 5752 5749 5748 5752 5754 5757 5759 5763 5765 5765 5767 5767 5768 5770 5769 5771 5774 5774 5774 5773 5774 5774 5774
5748 5753 5756 5758 5759 5762 5763 5762 5760 5756 5754 5753 5753 5753 5753 5752 5749 5747 5745 5742 5735 5722 5723 5734 5742 5745 5749 5753 5755 5755 5755 5758 5759 5759 5759 5760 5762 5763 5764 5764 5765 5765 5765
5743 5746 5748 5750 5751 5751 5752 5749 5746 5745 5744 5746 5744 5743 5743 5742 5741 5738 5737 5733 5730 5720 5721 5727 5732 5737 5741 5742 5743 5746 5745 5747 5748 5748 5749 5749 5750 5752 5753 5753 5753 5754 5754
5739 5739 5740 5741 5741 5739 5736 5734 5735 5737 5736 5735 5733 5733 5733 5732 5729 5730 5730 5728 5721 5721 5721 5723 5726 5728 5731 5733 5734 5734 5735 5736 5736 5735 5735 5737 5738 5739 5741 5742 5742 5743 5742
5728 5729 5729 5728 5728 5728 5728 5726 5725 5725 5723 5723 5722 5721 5720 5719 5719 5719 5720 5720 5718 5715 5716 5718 5716 5718 5720 5721 5721 5723 5721 5721 5721 5722 5723 5725 5727 5727 5728 5728 5728 5730 5731
5719 5719 5719 5720 5718 5718 5716 5715 5714 5714 5713 5712 5712 5711 5710 5708 5707 5707 5708 5708 5709 5708 5708 5707 5708 5707 5707 5706 5707 5709 5709 5710 5710 5712 5712 5713 5714 5714 5716 5716 5717 5717 5717
5711 5712 5711 5709 5708 5706 5705 5705 5703 5702 5701 5701 5700 5700 5699 5698 5697 5696 5695 5696 5695 5697 5697 5697 5699 5699 5698 5694 5695 5695 5697 5698 5699 5700 5700 5702 5703 5703 5705 5703 5705 5704 5703
5701 5701 5700 5697 5698 5697 5696 5694 5692 5692 5690 5689 5687 5687 5688 5689 5688 5686 5685 5685 5683 5683 5684 5686 5686 5686 5687 5685 5684 5686 5685 5687 5689 5689 5690 5691 5692 5692 5693 5692 5691 5692 5690
5692 5691 5690 5688 5687 5684 5683 5682 5681 5681 5678 5678 5678 5677 5675 5675 5675 5676 5675 5675 5673 5673 5673 5673 5675 5676 5678 5677 5677 5674 5675 5677 5678 5678 5679 5681 5681 5681 5680 5679 5679 5678 5677
5683 5681 5680 5678 5676 5673 5673 5672 5671 5669 5668 5667 5667 5666 5664 5665 5665 5666 5664 5665 5664 5666 5665 5667 5665 5666 5667 5668 5668 5666 5665 5667 5669 5668 5669 5669 5670 5669 5668 5667 5666 5666 5665
5675 5674 5672 5670 5668 5666 5664 5662 5660 5658 5657 5657 5656 5658 5658 5656 5655 5655 5656 5656 5656 5657 5658 5658 5658 5658 5659 5658 5659 5660 5657 5659 5658 5658 5659 5659 5657 5655 5654 5655 5655 5655 5654
5665 5663 5661 5659 5656 5656 5656 5655 5652 5650 5649 5649 5647 5646 5649 5648 5649 5650 5650 5649 5649 5650 5650 5649 5649 5649 5649 5649 5649 5649 5649 5648 5648 5649 5649 5648 5647 5646 5645 5645 5645 5645 5644
5657 5654 5653 5651 5650 5649 5647 5646 5644 5641 5639 5638 5637 5639 5639 5639 5640 5642 5644 5643 5643 5642 5642 5642 5642 5641 5640 5640 5640 5639 5639 5639 5639 5639 5638 5638 5636 5636 5638 5637 5634 5632 5632
5648 5646 5645 5643 5641 5640 5638 5637 5635 5633 5631 5630 5630 5630 5630 5632 5633 5633 5633 5634 5635 5635 5635 5634 5633 5633 5633 5632 5632 5631 5631 5630 5630 5629 5628 5628 5626 5626 5625 5624 5623 5623 5621
Wind_Speed
17 16 13 12 3 6 6 6 4 6 7 5 6 6 7 8 7 7 9 11 12 13 18 20 22 22 22 26 27 25 27 26 25 25 25 24 23 23 22 21 19 22 24
24 18 16 15 6 2 4 7 6 5 4 4 5 4 7 3 5 7 5 9 12 14 14 17 19 19 19 22 25 26 26 25 25 24 23 22 20 17 19 18 19 24 26
29 22 18 18 12 6 4 5 8 9 9 11 7 7 9 10 6 7 13 9 8 11 12 12 14 19 21 22 23 24 23 24 24 23 22 20 18 17 14 15 16 18 14
27 24 27 24 15 11 11 7 7 10 13 15 14 10 6 11 15 12 8 11 12 11 10 12 15 18 20 23 23 25 24 23 23 23 22 20 18 18 17 15 16 16 16
30 27 27 26 19 15 14 12 12 14 16 17 17 17 16 11 13 20 18 11 11 13 13 12 14 18 19 21 23 24 24 23 24 23 21 18 17 16 14 13 13 13 12
33 28 24 28 24 22 19 19 16 17 18 20 18 17 21 19 17 15 16 16 12 12 15 16 14 17 20 23 21 23 27 26 24 25 25 23 20 20 19 19 17 16 14
37 33 28 33 31 28 24 22 20 19 22 23 18 20 22 21 23 18 13 17 21 16 15 14 15 15 18 20 22 23 26 26 24 23 24 25 24 22 22 22 21 20 20
48 35 35 38 37 31 27 23 25 25 25 24 21 20 23 24 24 24 21 19 19 23 23 17 16 16 18 17 18 20 21 24 25 23 24 24 24 24 23 22 21 21 23
72 51 44 41 37 30 28 25 28 30 27 25 24 25 26 28 26 26 27 26 27 22 25 27 24 20 20 21 19 21 20 22 21 24 25 24 24 24 23 23 23 23 23
51 48 46 44 34 31 30 28 30 30 28 28 29 32 31 31 31 30 29 30 31 31 30 30 31 29 25 26 24 23 22 22 19 21 23 24 25 26 26 26 26 25 25
46 48 46 35 33 31 32 32 31 30 31 32 33 37 36 34 34 33 31 31 32 37 35 35 33 32 32 32 30 28 28 26 24 22 24 26 25 25 26 29 29 29 28
45 40 28 28 28 31 33 33 35 33 34 38 37 39 38 38 34 31 32 34 36 40 44 40 38 35 35 33 34 34 31 30 30 29 27 27 26 26 29 29 30 30 30
25 21 24 27 31 33 34 37 39 40 39 37 35 34 34 34 32 31 33 36 45 49 55 53 50 40 36 35 36 35 35 34 33 34 35 32 32 32 33 32 31 32 33
20 23 27 29 30 33 36 38 41 39 34 30 31 30 31 35 33 32 33 36 44 42 48 48 44 42 37 34 35 37 36 34 34 36 38 36 35 35 34 33 34 35 36
20 24 27 29 32 34 37 36 33 31 30 30 31 32 34 35 33 30 31 30 27 14 23 35 40 37 39 39 38 38 35 36 35 40 46 44 40 39 39 40 42 40 39
25 27 29 32 35 33 30 28 27 30 31 29 28 31 32 32 30 30 27 28 22 17 19 30 38 38 38 40 42 41 41 41 44 46 43 47 43 44 43 42 43 44 45
24 25 27 26 27 28 29 29 29 30 31 32 32 33 34 31 30 30 26 27 27 24 27 32 34 37 37 40 43 44 43 44 39 40 37 43 42 46 43 44 47 45 43
25 27 28 30 32 32 32 32 33 32 31 33 35 34 35 35 34 30 29 28 31 32 28 27 31 39 38 40 42 48 40 41 38 35 31 34 42 44 42 41 45 43 48
26 28 29 30 31 33 34 36 38 38 37 37 37 37 35 33 34 34 31 30 29 32 33 35 37 37 34 28 30 28 34 42 39 38 36 35 38 40 39 43 45 45 47
29 30 32 32 34 36 38 38 37 37 36 37 38 37 34 33 33 33 32 32 31 33 36 37 38 37 40 40 31 30 25 28 38 34 36 35 39 42 48 48 49 49 50
31 32 32 31 33 33 35 37 39 40 39 39 39 36 33 33 30 31 34 31 30 32 34 35 40 40 37 35 39 22 17 20 26 27 27 30 31 33 35 36 38 40 39
33 34 34 33 32 33 35 36 37 38 41 40 37 36 35 35 33 33 30 25 29 26 26 24 26 26 30 32 31 24 26 28 35 38 37 39 42 42 38 37 36 36 38
28 27 27 28 29 29 30 31 33 35 36 37 36 32 33 31 31 31 30 32 33 29 28 33 34 34 26 28 30 34 29 32 29 28 32 37 38 32 31 28 29 31 32
26 28 28 28 28 28 29 29 29 29 29 29 29 27 27 25 22 26 29 30 29 24 24 25 27 31 31 30 33 35 35 30 28 31 34 29 28 30 29 29 30 31 33
25 24 23 24 24 26 26 27 27 28 26 25 22 24 21 18 21 19 21 20 19 21 23 23 28 32 33 38 36 34 32 33 34 29 30 29 30 28 31 30 28 29 30
22 22 22 23 23 23 23 23 21 19 17 16 17 16 16 15 17 18 22 24 26 27 28 31 34 35 37 37 37 37 35 33 32 35 32 29 27 27 27 27 29 31 33
Wind_Direction
256 262 265 276 282 33 21 353 353 17 27 20 20 345 331 337 339 326 313 286 281 272 265 266 266 263 270 256 252 254 255 257 260 260 263 266 266 269 272 271 274 261 256
266 258 245 256 250 279 7 20 2 358 349 343 350 322 311 299 338 322 325 304 289 279 277 275 273 268 263 259 261 260 256 258 258 259 259 261 263 268 267 264 269 259 254
281 270 251 257 234 240 262 292 303 310 320 315 306 301 305 298 295 308 324 302 285 292 283 281 274 264 259 257 254 255 259 260 259 254 255 253 250 250 262 257 257 267 257
261 254 259 251 237 242 256 264 287 294 299 302 306 314 305 290 296 283 286 294 294 278 286 283 279 271 262 256 256 260 262 261 262 259 257 253 252 247 258 263 263 249 236
232 268 270 247 246 245 251 262 275 282 285 293 298 298 312 305 283 279 272 262 281 284 272 269 266 268 269 266 260 260 257 264 266 266 264 257 256 256 253 250 257 265 257
240 238 244 244 244 248 253 266 272 278 291 296 298 291 304 312 297 272 273 253 248 266 278 276 281 275 265 263 261 261 262 264 261 263 265 262 256 256 260 262 257 256 257
251 246 219 238 236 243 248 264 273 284 289 290 296 290 296 303 297 271 272 282 268 245 253 267 282 285 273 262 262 262 265 266 261 259 261 259 257 256 260 261 263 262 258
249 218 211 229 234 238 248 259 272 280 283 285 289 287 292 292 292 286 277 264 270 272 267 258 260 273 275 271 267 264 264 264 261 259 256 258 261 260 255 257 258 260 263
249 208 210 222 233 237 247 259 272 277 282 284 286 287 290 290 289 287 281 276 271 268 266 268 264 257 260 267 265 267 262 261 263 258 258 256 256 258 260 261 259 261 262
220 206 208 211 222 234 246 261 269 278 281 282 288 287 287 287 289 284 283 284 273 268 273 265 263 261 256 257 259 257 259 257 255 258 257 253 253 257 256 258 258 257 260
182 200 206 204 217 233 249 261 269 273 281 285 285 285 286 284 285 283 283 279 271 270 274 262 258 257 259 253 253 254 256 258 256 258 261 260 258 256 257 260 260 261 262
201 200 189 209 229 243 255 266 271 279 283 288 287 286 285 283 281 282 281 276 275 269 264 258 254 256 256 258 255 254 253 254 261 262 260 265 267 266 261 258 260 261 262
182 188 208 224 238 249 260 269 279 283 283 282 280 279 279 279 280 283 287 281 279 272 264 256 252 252 250 255 257 255 254 255 255 260 261 263 266 268 263 259 260 262 264
195 213 227 239 250 262 269 274 279 282 281 277 274 272 273 278 280 287 288 290 296 278 245 242 246 245 245 251 256 257 255 255 258 263 264 263 260 258 262 265 267 268 266
240 246 256 264 268 270 271 274 275 274 270 266 264 266 267 271 276 278 278 283 293 272 226 233 238 239 244 250 254 258 259 260 263 264 263 257 258 259 259 261 264 268 271
261 268 268 268 269 269 271 270 267 266 267 267 268 270 272 271 273 276 273 275 275 273 247 244 246 239 243 248 253 259 260 261 271 268 257 253 259 260 261 259 261 265 269
271 272 273 274 277 277 271 269 269 272 275 278 276 276 276 275 272 270 266 264 261 257 257 255 244 254 256 257 252 256 263 267 262 252 249 247 246 252 255 264 265 265 272
275 276 272 268 266 267 268 269 268 270 271 274 276 275 276 277 276 275 273 264 263 257 259 251 254 258 261 261 259 253 258 249 243 243 239 243 246 252 258 259 262 268 270
266 269 270 270 273 275 275 272 270 270 268 268 271 273 274 274 275 274 270 266 260 261 261 255 254 260 271 244 237 249 249 240 245 237 235 251 252 259 261 258 252 263 273
273 272 274 276 275 275 274 273 272 271 269 267 267 268 270 271 269 265 263 262 261 259 257 258 257 261 262 270 269 252 248 249 258 250 259 259 254 251 251 260 268 271 273
279 278 277 277 276 275 273 271 269 267 266 266 269 269 268 264 264 268 267 266 264 257 258 257 258 261 255 269 268 247 263 274 272 275 267 263 262 259 264 268 272 271 270
281 282 281 279 279 280 279 276 275 272 268 270 273 272 269 268 265 264 264 249 258 252 247 255 255 266 261 263 268 257 256 256 251 250 251 254 257 263 263 265 271 278 282
280 278 279 283 284 284 283 284 284 282 280 279 279 284 278 277 272 270 266 259 257 261 259 260 263 271 260 254 255 262 263 263 258 262 266 265 264 264 272 285 295 299 301
283 284 284 283 284 284 284 283 283 282 282 280 281 284 286 284 284 271 265 262 265 267 270 271 267 271 275 270 263 260 258 260 265 264 264 272 289 296 296 298 293 289 288
288 286 286 286 285 285 285 284 285 285 285 285 281 283 283 281 284 270 252 254 259 257 257 259 271 267 266 264 262 260 265 268 273 288 300 302 302 299 289 284 282 285 285
292 294 297 298 297 295 295 295 297 298 289 279 273 269 262 256 250 254 253 258 259 258 267 275 279 280 279 281 284 293 297 300 301 299 299 292 289 285 282 283 284 286 288